Погода Торгай

Погода Торгай : погода сейчас, прогноз погоды и архив. Всё, что Вы хотите узнать о погоде Торгай!

Хотите узнать прогноз погоды Торгай? Тогда Вам сюда: Погода Торгай

Поиск расширенной информации на нашем сайте:

Другие новости

Новости СМИ2

Главная страница сайта

Новости сайта

03.07.2017

Напоминаем, что на нашем специализированном сайте Метеоцентр.Азия вы можете получить высокодетализированные автоматические прогнозы погоды по пунктам России, СНГ и мира в авиационном формате (включающие направление и скорость ветра, видимость, явления погоды, количество и форму облачности, нижнюю и верхнюю границу облачности).


Погода Торгай - сегодня

Время (UTC), дата Ветер
(°,м/с) 
Видим.   Явления Облачность Т
(°С)
Тd
(°С)
f(%) Тe
(°С)
Pmin
(гПа)
dP
(гПа)
Po
(мм)
O2
(г/м3)
Тmin Tmax R s Состояние
почвы
21 19.05.18 090 (В) н/о    ясно 
+14.1 +4.3 52 +15  1022.7  -0.3  755  289           
00 20.05.18 140 (ЮВ) 10 км    ясно 
+12.4 +3.4 54 +14  1022.8  -0.1  755  290           
03 20.05.18 160 (Ю) 10 км    3/0 верхняя 
[Ci fib]
+15.2 +6.8 57 +17  1022.8  0.2  755  287           
06 20.05.18 160 (Ю) 10 км    3/0 верхняя 
[Ci fib]
+22.5 +7 37 +23  1022.1  -0.3  755  280  +12.4         
09 20.05.18 160 (Ю) 10 км    ясно 
+27.1 +7.3 29 +27  1020.8  -1  754  275           
12 20.05.18 160 (Ю) 10 км    ясно 
+28.3 +7.6 27 +28  1019.5  -1  753  274           
15 20.05.18 200 (Ю) 10 км    ясно 
+26.4 +7.4 30 +26  1018.8  -0.8  752  275    +28.6       
18 20.05.18 200 (Ю) н/о    ясно 
+20.2 +5.1 37 +20  1019.8  0.7  753  282    +28.6       
21 20.05.18 200 (Ю) н/о    ясно 
+18.4 +5 41 +20  1020.5  0.6  753  284           
00 21.05.18 200 (Ю) 10 км    3/0 средняя 
[Ac lent]
+15.8 +5.6 51 +17  1020  -0.6  753  286           
03 21.05.18 200 (Ю) 10 км    ясно 
+19.3 +7.3 46 +20  1019.1  -0.7  752  282           
06 21.05.18 200 (Ю) 10 км    ясно 
+27.1 +9.7 34 +28  1020.2  1.5  754  275  +15.8         
09 21.05.18 200 (Ю) 10 км    ясно 
+30.9 +9.5 27 +31  1018.8  -1.2  753  271           
12 21.05.18 200 (Ю) 10 км    ясно 
+31.9 +9.3 25 +32  1017.4  -1.3  752  270           
15 21.05.18 200 (Ю) 10 км    6/6 600 м 
[Sc]
+28.2 +8 28 +28  1017  -0.6  751  273    +32.4       
18 21.05.18 200 (Ю) н/о    8/0 средняя 
[Ac trans]
+23.8 +7.4 35 +24  1017.4  0.2  751  277    +32.4       
21 21.05.18 200 (Ю) н/о    3/0 средняя 
[Ac lent]
+22.2 +7.1 38 +22  1015.9  -1.6  750  278           
00 22.05.18 250 (З) 10 км    6/0 средняя 
[Ac trans]
+18.5 +8 50 +19  1014.9  -1.2  749  281           
03 22.05.18 290 (З) 10 км    8/0 средняя 
[Ac trans]
+18.8 +9.5 55 +20  1015.7  0.9  750  281           
06 22.05.18 340 (С) 10 км  {ливн. осадки}  8/8 1000 м 
[Cu med, cong]
+14.6 +13.1 91 +20  1018.7  2.6  752  285  +18.2         
09 22.05.18 340 (С) 10 км    6/6 1000 м 
[Cu med, cong]
+18.4 +10.1 58 +19  1019.4  0.8  752  282           
12 22.05.18 340 (С) 10 км    4/0 средняя 
[Ac lent]
+18.7 +3.8 37 +19  1019.2  -0.1  752  283           
15 22.05.18 340 (С) 10 км    ясно 
+18.4 +3.8 38 +19  1019.9  0.6  753  284    +18.9  0.0     
18 22.05.18 320 (СЗ) н/о    ясно 
+12.2 +3.2 54 +13  1020.9  0.6  753  290    +18.9       
21 22.05.18 290 (З) н/о    ясно 
+12 +3.2 55 +12  1019.7  -1.1  752  290           
Время (UTC), дата Ветер
(°,м/с) 
Видим.   Явления Облачность Т
(°С)
Тd
(°С)
f(%) Тe
(°С)
Pmin
(гПа)
dP
(гПа)
Po
(мм)
O2
(г/м3)
Тmin Tmax R s Состояние
почвы

Для получения пояснительной информации подведите курсор к названию столбца.

ПОГОДА Торгай - архив

Всё, что Вы хотите узнать о погоде Торгай - удобно и подробно!

Выберите нужную дату (начиная с 1 января 2015* года) и нажмите кнопку "Найти".
Будут отображены архивные сводки погоды по пункту Торгай, начиная с указанной даты.


Отображать данные в формате CSV (для использования в таблицах Excel)


Внимание! Наш архив погоды предназначен исключительно для личного некоммерческого использования в познавательных целях. Если Вам необходимы официальные справки о состоянии погоды (для производственных, юридических, коммерческих и т.п. целей), обращайтесь в органы Росгидромета.

*Примечание: данная дата относится к архиву по метеостанциям СССР (Россия, СНГ, Балтия).
Архив по метеостанциям Зарубежной Европы и Азии (кроме Китая) хранится 10 дней, по другим регионам земного шара (Китай, Африка, Америка, Австралия, Океания) - 1 день.

Торгай - район местоположения метеостанции


Название, широта, долгота, высота метеостанции:
Торгай 49.7°ш. 63.5°д. 123 м над ур. моря [Казахстан]

Дополнительная информация

В oтличие oт бoльшинства пoгoдных сайтoв мы публикуем пoдрoбную метеoинфoрмацию в детальнoм прoфессиoнальнoм фoрмате.

Характеристики температуры и влажнoсти вoздуха измеряются на высoте 2 м в тени вдали oт зданий и деревьев.
Скoрoсть ветра измеряется на высoте 10 м (на урoвне рoста челoвека скoрoсть ветра ниже в 1.5-2 раза). Если метеoстанция нахoдится в гoрoде или в лесу, тo скoрoсть ветра занижена на 2-4 м/с пo сравнению с oткрытым местoм. Скoрoсть ветра над акватoриями крупных рек и oзёр, а также на вершинах хoлмoв на 2-5 м/с выше, чем в oбычных услoвиях.
Атмoсфернoе давление в разных тoчках местнoсти мoжет значительнo oтличаться oт давления на метеoстанции, в зависимoсти oт услoвий рельефа (при пoдъёме на 10 м давление пoнижается примернo на 1 мм рт.ст.).